NOAA 16 DEB, 41158

Orbit data source: Space-Track

NOAA 16 DEB, 41158 is space debris in SSO originally from a launch on Thu, 21 Sep 2000 UTC launched from the Air Force Western Test Range (AFWTR). Debris objects in space refer to the collection of defunct objects orbiting the Earth. Examples of debris include non-operational satellites, rocket bodies, and fragments generated from explosions, collisions, or faulty payload assembly.

Loading next visibility...
Identifier
41158, 2000-055CR
Orbit
SSO
Country
Flag of USUS
Related business
Manufacturer
Unknown
Mission
Spacecraft
Bus & Motor
Unknown
Mass
Unknown
Launch date (UTC)
2000-09-21 (25 years ago)
Launch vehicle
Unknown
Launch site
Air Force Western Test Range (AFWTR)
Object type
Payload
Rocket body
Debris
Shape & HBR
Unknown shape, 0.1 m
Radar Cross Section
Small (<0.1 m²)

Expand to show TLE details & history
Last TLE update: 2 days ago

TLE from 2 days ago
0 NOAA 16 DEB
1 41158U 00055CR  25295.19740263  .00009761  00000-0  31967-2 0  9995
2 41158  98.9563  81.8960 0012849 174.2873 185.8462 14.38596086512719
Epoch: 2025-10-22T04:44Z
TLE epoch observation values (Epoch: 2025-10-22T04:44:15.587Z)
Latitude
0.00001°
Longitude
-20.04341°
Altitude
775.203 km
Speed
7.462 km/s
True Right ascension
05h 27m 35s
True Declination
0° 00' 00"
Sunlit
Object was in full shadow at epoch
Visualization orbit readout
Latitude
Unknown
Longitude
Unknown
Altitude
Unknown
Speed
Unknown
Apparent Right ascension
Unknown
Apparent Declination
Unknown
Sunlit
N/A
Visualization observer readout
Local Sidereal Time
16:38:51
Azimuth
Unknown
Elevation
Unknown
Doppler factor
Unknown
Orbital elements
Apogee altitude
769.459 km
Perigee altitude
751.114 km
Semi-major axis
7,138.424 km
Eccentricity
0.00128
Inclination
98.9563°
RAAN
81.896°
Arg. of periapsis
174.2873°
True anomaly
185.83123°
Mean anomaly
185.8462°
Eccentric anomaly
185.83871°
Mean motion
3.59865 °/min
Orbital period
100.04 mins
BSTAR
0.0031967
Loading maneuver chart data...
Computing Atmospheric mass density...
Loading historical data...
Loading historical data...
Loading historical data...
Loading historical data...
Loading historical data...
Loading historical data...
Loading historical data...

Documentation

Showing up to 5 results
|